Flag for Russia Weather past 2 weeks in Yuzhno-Sakhalinsk, Russia

Now
77 °F

Clear.


Feels Like: 79 °F
Forecast: 60 / 72 °F
Wind: 13 mph from South

Location: Yuzhno Airport-Sakhalinsk

Current Time: Aug 3, 2015 at 4:42:09 PM

Latest Report: Aug 3, 2015 at 4:00 PM


Visibility: N/A

Pressure: 29.80 "Hg

Humidity: 65%

Dew point: 64 °F

Location of Yuzhno-SakhalinskLocation

Historic Weather in Yuzhno-Sakhalinsk — Graph

°F

Yuzhno-Sakhalinsk temperature yesterday

Maximum temperature yesterday: 79 °F (at 11:30 AM)
Minimum temperature yesterday: 48 °F (at 5:00 AM)
Average temperature yesterday: 69 °F

Past Weeks' High & Low Weather Summary

 TemperatureHumidityPressure
High82 °F (Jul 21, 3:00 PM)100% (Jul 19, 9:30 PM)29.89 "Hg (Jul 19, 9:30 PM)
Low48 °F (Aug 2, 5:00 AM)45% (Jul 20, 2:30 PM)29.59 "Hg (Jul 31, 4:00 PM)
Average68 °F89%29.76 "Hg
* Reported Jul 19 3:00 PM — Aug 3 3:30 PM, Yuzhno-Sakhalinsk, Weather by CustomWeather, © 2015

Note: Actual official high and low records may vary slightly from our data, if they occured in-between our weather recording intervals... More about our weather records

Advertising

Yuzhno-Sakhalinsk weather history for previous 24 hours

 ConditionsComfort  
Time TempWeatherWind HumidityBarometerVisibility
3:30 PM
Mon, Aug 3
79 °FClear.13 mph58%29.80 "HgN/A
3:00 PM79 °FClear.13 mph61%29.80 "HgN/A
2:30 PM79 °FClear.10 mph61%29.80 "HgN/A
1:30 PM79 °FClear.10 mph61%29.80 "HgN/A
1:00 PM79 °FClear.10 mph61%29.80 "HgN/A
12:30 PM79 °FClear.6 mph65%29.83 "HgN/A
12:00 PM79 °FClear.6 mph61%29.83 "HgN/A
11:30 AM81 °FClear.3 mph58%29.83 "HgN/A
11:00 AM79 °FClear.1 mph54%29.83 "HgN/A
10:30 AM79 °FClear.1 mph54%29.83 "HgN/A
10:00 AM75 °FClear.1 mph69%29.86 "HgN/A
9:30 AM72 °FClear.3 mph78%29.86 "HgN/A
9:00 AM70 °FClear.3 mph78%29.86 "HgN/A
8:30 AM66 °FClear.1 mph88%29.86 "Hg5 mi
8:00 AM64 °FFog.1 mph100%29.86 "Hg3 mi
7:30 AM63 °FFog.No wind100%29.86 "Hg2 mi
7:00 AM59 °FCool.1 mph100%29.86 "Hg1 mi
6:30 AM55 °FFog.No wind100%29.86 "Hg1 mi
6:00 AM54 °FFog.1 mph100%29.86 "Hg1 mi
5:00 AM52 °FFog.1 mph100%29.86 "Hg2 mi
4:00 AM54 °FFog.1 mph100%29.86 "Hg4 mi
3:00 AM57 °FClear.1 mph100%29.86 "HgN/A
2:00 AM57 °FClear.1 mph100%29.86 "HgN/A
1:00 AM57 °FClear.3 mph100%29.86 "HgN/A
12:00 AM59 °FClear.1 mph100%29.86 "HgN/A
11:00 PM
Sun, Aug 2
59 °FClear.1 mph100%29.86 "HgN/A
10:30 PM63 °FClear.No wind100%29.86 "HgN/A
10:00 PM63 °FClear.1 mph100%29.86 "HgN/A
9:30 PM63 °FClear.1 mph100%29.86 "HgN/A
9:00 PM64 °FClear.3 mph100%29.86 "HgN/A
8:30 PM64 °FFog.No wind100%29.83 "HgN/A
8:00 PM70 °FClear.No wind83%29.83 "HgN/A
7:30 PM73 °FClear.1 mph83%29.83 "HgN/A
7:00 PM75 °FClear.1 mph74%29.83 "HgN/A
6:30 PM77 °FClear.6 mph69%29.83 "HgN/A
6:00 PM77 °FClear.6 mph69%29.83 "HgN/A
5:30 PM79 °FClear.6 mph65%29.83 "HgN/A
5:00 PM79 °FClear.6 mph65%29.83 "HgN/A
4:30 PM77 °FClear.8 mph65%29.83 "HgN/A
4:00 PM77 °FClear.8 mph61%29.83 "HgN/A
Weather by CustomWeather, © 2015

See weather overviewHow to use our weather pages